Location: Treviso
(45.6669°N, 12.2430°E)
Time: 22:33:31
(UTC+01:00)

ITUPSAT 1 - Visible Passes

Search period start: 20 November 2019 00:00
Search period end: 30 November 2019 00:00
Orbit: 701 x 714 km, 98.6° (Epoch: 19 November)

Date Brightness Start Highest point End Pass type
(mag) Time Alt. Az. Time Alt. Az. Time Alt. Az.
20 Nov ? 04:05:05 10° SE 04:08:45 37° E 04:08:45 37° E visible
20 Nov ? 05:43:32 10° SSW 05:47:26 25° W 05:47:44 25° W visible
20 Nov ? 17:40:15 10° NNE 17:45:01 68° ESE 17:49:46 10° S visible
20 Nov ? 19:19:18 10° NNW 19:22:18 17° WNW 19:25:17 10° W visible
21 Nov ? 03:13:58 10° E 03:14:26 11° E 03:14:26 11° E visible
21 Nov ? 04:48:56 10° SSE 04:53:25 76° SSW 04:53:25 76° SSW visible
21 Nov ? 18:24:40 10° N 18:29:14 47° WNW 18:33:48 10° SW visible
22 Nov ? 03:56:07 10° SE 03:59:06 29° E 03:59:06 29° E visible
22 Nov ? 05:33:58 10° SSW 05:38:04 30° W 05:38:04 30° W visible
22 Nov ? 17:31:04 10° NNE 17:35:46 55° E 17:40:27 10° S visible
22 Nov ? 19:09:44 10° NNW 19:13:11 20° WNW 19:16:37 10° WSW visible
23 Nov ? 04:39:42 10° SSE 04:43:46 65° SSE 04:43:46 65° SSE visible
23 Nov ? 06:21:13 10° WSW 06:22:45 12° W 06:22:45 12° W visible
23 Nov ? 18:15:21 10° N 18:20:03 58° WNW 18:24:44 10° SSW visible
24 Nov ? 03:47:12 10° ESE 03:49:27 22° E 03:49:27 22° E visible
24 Nov ? 05:24:27 10° SSW 05:28:26 36° WSW 05:28:26 36° WSW visible
24 Nov ? 17:21:55 10° NNE 17:26:30 44° E 17:31:04 10° S visible
24 Nov ? 19:00:15 10° N 19:04:03 24° WNW 19:07:51 10° WSW visible
25 Nov ? 04:30:32 10° SSE 04:34:08 50° SE 04:34:08 50° SE visible
25 Nov ? 06:10:54 10° WSW 06:13:07 14° W 06:13:07 14° W visible
25 Nov ? 18:06:04 10° N 18:10:51 71° WNW 18:15:36 10° SSW visible
25 Nov ? 19:47:00 10° NW 19:47:46 10° NW 19:48:33 10° WNW visible
26 Nov ? 03:38:20 10° ESE 03:39:50 17° E 03:39:50 17° E visible
26 Nov ? 05:15:01 10° S 05:18:50 42° SW 05:18:50 42° SW visible
26 Nov ? 17:12:49 10° NNE 17:17:14 36° E 17:21:37 10° SSE visible
26 Nov ? 18:50:50 10° N 18:54:55 29° WNW 18:58:59 10° WSW visible
27 Nov ? 04:21:24 10° SSE 04:24:32 39° SE 04:24:32 39° SE visible
27 Nov ? 06:00:57 10° SW 06:03:30 17° WSW 06:03:30 17° WSW visible
27 Nov ? 17:56:49 10° NNE 18:01:38 87° WNW 18:06:26 10° SSW visible
27 Nov ? 19:36:41 10° NNW 19:38:41 13° WNW 19:40:43 10° W visible
28 Nov ? 03:29:34 10° ESE 03:30:15 13° E 03:30:15 13° E visible
28 Nov ? 05:05:38 10° S 05:09:14 45° SSW 05:09:14 45° SSW visible
28 Nov ? 17:03:45 10° NE 17:07:57 29° E 17:12:07 10° SSE visible
28 Nov ? 18:41:26 10° N 18:45:45 34° WNW 18:50:04 10° SW visible
29 Nov ? 04:12:20 10° SE 04:14:57 30° ESE 04:14:57 30° ESE visible
29 Nov ? 05:51:11 10° SW 05:53:56 21° WSW 05:53:56 21° WSW visible
29 Nov ? 17:47:35 10° NNE 17:52:24 77° ESE 17:57:11 10° S visible
29 Nov ? 19:26:54 10° NNW 19:29:35 15° WNW 19:32:17 10° W visible
